TimeCST,TemperatureF,Dew PointF,Humidity,Sea Level PressureIn,VisibilityMPH,Wind Direction,Wind SpeedMPH,Gust SpeedMPH,PrecipitationIn,Events,Conditions,WindDirDegrees,DateUTC
12:53 AM,18.0,7.0,62,30.32,10.0,East,4.6,-,N/A,,Clear,80,2013-01-23 06:53:00
1:53 AM,16.0,7.0,68,30.31,10.0,East,5.8,-,N/A,,Clear,80,2013-01-23 07:53:00
2:53 AM,16.0,7.0,68,30.30,10.0,ESE,3.5,-,N/A,,Clear,120,2013-01-23 08:53:00
3:53 AM,16.0,7.0,68,30.28,10.0,ENE,3.5,-,N/A,,Clear,60,2013-01-23 09:53:00
4:53 AM,16.0,7.0,68,30.27,10.0,Calm,Calm,-,N/A,,Clear,0,2013-01-23 10:53:00
5:53 AM,15.1,8.1,74,30.27,10.0,Calm,Calm,-,N/A,,Clear,0,2013-01-23 11:53:00
6:53 AM,16.0,7.0,68,30.27,10.0,South,3.5,-,N/A,,Clear,170,2013-01-23 12:53:00
7:53 AM,17.1,8.1,68,30.27,10.0,South,3.5,-,N/A,,Clear,180,2013-01-23 13:53:00
8:53 AM,23.0,14.0,68,30.26,10.0,SSW,4.6,-,N/A,,Clear,210,2013-01-23 14:53:00
9:53 AM,30.0,17.1,59,30.26,10.0,SW,5.8,-,N/A,,Clear,230,2013-01-23 15:53:00
10:53 AM,36.0,19.0,50,30.27,10.0,WSW,4.6,-,N/A,,Clear,240,2013-01-23 16:53:00
11:53 AM,41.0,19.9,43,30.25,10.0,West,5.8,-,N/A,,Clear,260,2013-01-23 17:53:00
12:53 PM,43.0,19.0,38,30.21,10.0,Variable,5.8,-,N/A,,Clear,0,2013-01-23 18:53:00
1:53 PM,46.0,19.9,35,30.21,10.0,NW,11.5,-,N/A,,Clear,310,2013-01-23 19:53:00
2:53 PM,46.0,19.9,35,30.20,10.0,NNW,9.2,-,N/A,,Clear,330,2013-01-23 20:53:00
3:53 PM,46.0,19.9,35,30.22,10.0,North,12.7,-,N/A,,Clear,350,2013-01-23 21:53:00
4:53 PM,41.0,19.9,43,30.23,10.0,NNW,6.9,-,N/A,,Clear,340,2013-01-23 22:53:00
5:53 PM,37.0,19.9,50,30.27,10.0,North,8.1,-,N/A,,Clear,360,2013-01-23 23:53:00
6:53 PM,36.0,19.0,50,30.31,10.0,North,11.5,-,N/A,,Clear,360,2013-01-24 00:53:00
7:53 PM,34.0,19.0,54,30.33,10.0,North,10.4,-,N/A,,Clear,360,2013-01-24 01:53:00
8:53 PM,32.0,15.1,50,30.38,10.0,North,12.7,24.2,N/A,,Clear,10,2013-01-24 02:53:00
9:53 PM,28.9,12.9,51,30.40,10.0,North,15.0,-,N/A,,Clear,10,2013-01-24 03:53:00
10:53 PM,27.0,14.0,58,30.41,10.0,North,11.5,-,N/A,,Clear,10,2013-01-24 04:53:00
11:53 PM,25.0,12.9,60,30.44,10.0,NNE,10.4,-,N/A,,Clear,20,2013-01-24 05:53:00